Regional Weather Roundup
Issued by NWS

Home | Current Version | Previous Version | Text Only | Print | Product List | Glossary On
Versions: 1 2 3 4 5 6 7 8 9 10 11 12 13 14 15 16 17 18 19 20 21 22 23 24 25 26 27 28 29 30 31 32 33 34 35 36 37 38 39 40 41 42 43 44 45 46 47 48 49 50
000
ASUS45 KABQ 281210
RWRNM
NEW MEXICO REGIONAL WEATHER ROUNDUP
NATIONAL WEATHER SERVICE ALBUQUERQUE NM
600 AM MDT SUN AUG 28 2016

NOTE: "FAIR" MEANS FEW OR NO CLOUDS BELOW 12,000 FEET AGL WITH NO
       SIGNIFICANT WEATHER OR OBSTRUCTIONS TO VISION.

      THIS PRODUCT IS RELEASED AS TWO VERSIONS.  ONE VERSION NEAR
      THE TOP OF THE HOUR CONTAINING PRELIMINARY DATA FROM ALBUQUERQUE
      AND OTHER STATIONS.  A FINAL VERSION WITH ADDITIONAL DATA IS
      ISSUED ABOUT 10 MINUTES AFTER THE HOUR.

NMZ501-503-504-510>518-281300-
NORTHWEST PLATEAU/NORTHCENTRAL MOUNTAINS

CITY           SKY/WX    TMP DP  RH WIND       PRES   REMARKS
FARMINGTON     FAIR      50  47  89 E7        30.26R
6HR MIN TEMP:  50; 6HR MAX TEMP:  56;

SANTA FE       MOCLDY    52  49  89 N6        30.29R
6HR MIN TEMP:  51; 6HR MAX TEMP:  55;

TAOS           MOCLDY    41  36  81 N3        30.34S
ANGEL FIRE     FAIR      34  33  96 CALM      30.41R

$$
NMZ402-403-502-505>509-281300-
WESTCENTRAL MOUNTAINS/SOUTHWEST MOUNTAINS

CITY           SKY/WX    TMP DP  RH WIND       PRES   REMARKS
GALLUP         CLOUDY    50  48  93 CALM      30.29R
6HR MIN TEMP:  46; 6HR MAX TEMP:  51;

GRANTS         FAIR      46  45  95 NW12G18   30.32S
SILVER CITY    CLOUDY    58  55  91 N5        30.21S

$$
NMZ407-409-411-412-281300-
SOUTHERN DESERTS

CITY           SKY/WX    TMP DP  RH WIND       PRES   REMARKS
DEMING         CLOUDY    64  57  78 NE7       30.16R
6HR MIN TEMP:  63; 6HR MAX TEMP:  69;

LAS CRUCES     FAIR      63  60  92 N5        30.17S
HOLLOMAN AFB   CLOUDY    64  61  88 SW6       30.15R
ALAMOGORDO     FAIR      64  55  72 N3        30.17R
T OR C         MOCLDY    60  50  69 N3        30.19R
6HR MIN TEMP:  60; 6HR MAX TEMP:  68;


$$
NMZ519>523-281300-
CENTRAL VALLEYS/CENTRAL HIGHLANDS

CITY           SKY/WX    TMP DP  RH WIND       PRES   REMARKS
ALBUQUERQUE    MOCLDY    59  51  75 N7        30.24R
6HR MIN TEMP:  56; 6HR MAX TEMP:  64;

DOUBLE EAGLE   MOCLDY    48  46  93 NW5       30.28R
CLINES CORNERS FAIR      48  45  89 NW9       30.32R
6HR MIN TEMP:  48; 6HR MAX TEMP:  54;

BELEN          CLOUDY    53  52  96 NE3       30.24R
6HR MIN TEMP:  52; 6HR MAX TEMP:  59;

SOCORRO        MOCLDY    56  49  78 CALM      30.21S
6HR MIN TEMP:  56; 6HR MAX TEMP:  62;


$$
NMZ524>526-539-540-281300-
SOUTHCENTRAL MOUNTAINS

CITY           SKY/WX    TMP DP  RH WIND       PRES   REMARKS
RUIDOSO          N/A     57  46  67 CALM      30.33R

$$
NMZ527>531-281300-
NORTHEAST HIGHLANDS/NORTHEAST PLAINS

CITY           SKY/WX    TMP DP  RH WIND       PRES   REMARKS
LAS VEGAS      FAIR      50  43  77 NW6       30.30R
6HR MIN TEMP:  49; 6HR MAX TEMP:  55;

RATON          FAIR      53  48  83 N6        30.25S
6HR MIN TEMP:  52; 6HR MAX TEMP:  59; 6HR PCP: TRACE;

CLAYTON        CLOUDY    60  60 100 S6        30.20S FOG
6HR MIN TEMP:  59; 6HR MAX TEMP:  61;


$$
NMZ532>537-281300-
EASTCENTRAL PLAINS

CITY           SKY/WX    TMP DP  RH WIND       PRES   REMARKS
TUCUMCARI      FAIR      64  56  75 CALM      30.16R
6HR MIN TEMP:  61; 6HR MAX TEMP:  69;

CANNON AFB     MOCLDY    60  60 100 S3        30.19R
6HR MIN TEMP:  60; 6HR MAX TEMP:  63;

CLOVIS AIRPORT CLOUDY    61  55  82 S7        30.18S

$$
NMZ028-029-538-281300-
SOUTHEAST PLAINS

CITY           SKY/WX    TMP DP  RH WIND       PRES   REMARKS
ROSWELL        FAIR      65  59  81 SW7       30.15R
6HR MIN TEMP:  64; 6HR MAX TEMP:  75; 6HR PCP:  0.07;

ARTESIA        CLOUDY    66  63  88 W3        30.15R
CARLSBAD       FAIR      68  59  73 N8        30.12R
6HR MIN TEMP:  68; 6HR MAX TEMP:  73;

HOBBS          PTCLDY    64  64 100 N9        30.18R


$$




USA.gov is the U.S. government's official web portal to all federal, state and local government web resources and services.